EW6800 Weather Reports


Display with metric or nautical units.
time (UTC)temp
F
wind
direction
speed
MPH
gust
MPH
rain 1hr
in
rain 24hr
in
rain mn
in
humidity
%
barometer
mb
20260905093547 55 317 5.0 9.0 0.00 0.01 0.00 60 1014.7
20260905093056 55 320 5.0 9.0 0.00 0.01 0.00 60 1014.9
20260905092546 55 311 6.0 10.0 0.00 0.01 0.00 59 1014.8
20260905092043 55 319 7.0 10.0 0.00 0.01 0.00 60 1014.9
20260905091604 55 313 7.0 10.0 0.00 0.01 0.00 60 1014.9
20260905091044 55 324 8.0 10.0 0.00 0.01 0.00 61 1015.0
20260905090544 55 321 8.0 10.0 0.00 0.01 0.00 60 1015.0
20260905090056 55 318 7.0 10.0 0.00 0.01 0.00 59 1015.0
20260905085545 55 304 7.0 10.0 0.00 0.01 0.00 60 1015.1
20260905085045 55 311 6.0 10.0 0.00 0.01 0.00 59 1015.2
20260905084553 55 306 6.0 10.0 0.00 0.01 0.00 58 1015.2
20260905084041 55 315 6.0 8.0 0.00 0.01 0.00 59 1015.1
20260905083543 55 314 4.0 8.0 0.00 0.01 0.00 60 1015.2
20260905083050 54 302 4.0 8.0 0.00 0.01 0.00 60 1015.3
20260905082543 54 315 5.0 8.0 0.00 0.01 0.00 60 1015.1
20260905082044 53 323 5.0 8.0 0.00 0.01 0.00 63 1015.2
20260905081604 53 327 3.0 6.0 0.00 0.01 0.00 65 1015.2
20260905081043 53 316 3.0 5.0 0.00 0.01 0.00 66 1015.2
20260905080543 53 327 2.0 5.0 0.00 0.01 0.00 67 1015.1
20260905075547 55 319 3.0 7.0 0.00 0.01 0.00 64 1015.2
20260905075041 55 319 4.0 8.0 0.00 0.01 0.00 61 1015.2
20260905074551 55 312 4.0 8.0 0.00 0.01 0.00 58 1015.3
20260905074043 55 310 5.0 8.0 0.00 0.01 0.00 58 1015.2
20260905073543 56 301 4.0 7.0 0.00 0.01 0.00 58 1015.2
20260905073100 56 317 4.0 6.0 0.00 0.01 0.00 57 1015.2
20260905072541 56 315 4.0 6.0 0.00 0.01 0.00 57 1015.2
20260905072043 55 315 3.0 8.0 0.00 0.01 0.00 57 1015.3
20260905071559 55 321 4.0 8.0 0.00 0.01 0.00 57 1015.2
20260905071043 55 318 4.0 8.0 0.00 0.01 0.00 58 1015.2
20260905070543 55 317 5.0 8.0 0.00 0.01 0.00 59 1015.3
20260905070100 55 313 5.0 8.0 0.00 0.01 0.00 60 1015.2
20260905065543 55 313 5.0 8.0 0.00 0.05 0.01 61 1015.1
20260905065040 56 319 4.0 8.0 0.00 0.05 0.01 58 1015.1
20260905064601 56 312 5.0 10.0 0.00 0.05 0.01 58 1015.2
20260905064040 55 315 6.0 10.0 0.00 0.05 0.01 58 1015.2
20260905063543 55 321 6.0 10.0 0.00 0.05 0.01 58 1015.1
20260905063103 55 316 5.0 9.0 0.00 0.05 0.01 60 1015.1
20260905062544 55 323 4.0 8.0 0.00 0.05 0.01 61 1015.2
20260905062044 55 321 5.0 8.0 0.00 0.05 0.01 61 1015.2
20260905061609 55 319 4.0 9.0 0.00 0.05 0.01 61 1015.3
20260905061043 55 313 4.0 10.0 0.00 0.05 0.01 61 1015.2
20260905060543 55 315 6.0 10.0 0.00 0.05 0.01 61 1015.2
20260905060058 55 321 6.0 11.0 0.00 0.05 0.01 63 1015.2
20260905055544 54 319 8.0 11.0 0.00 0.06 0.01 64 1015.1
20260905055043 54 321 8.0 11.0 0.00 0.06 0.01 66 1015.2
20260905054552 54 318 6.0 11.0 0.00 0.06 0.01 67 1015.3
20260905054047 53 298 7.0 10.0 0.00 0.06 0.01 69 1015.3
20260905053545 53 315 7.0 9.0 0.00 0.06 0.01 72 1015.4
20260905053103 53 316 7.0 9.0 0.00 0.06 0.01 79 1015.4
20260905052545 53 313 5.0 9.0 0.00 0.06 0.01 80 1015.4
20260905052044 53 305 6.0 10.0 0.00 0.06 0.01 79 1015.5
20260905051558 54 319 6.0 10.0 0.00 0.06 0.01 78 1015.5
20260905051043 54 309 7.0 10.0 0.00 0.06 0.01 78 1015.5
20260905050543 54 308 7.0 10.0 0.00 0.06 0.01 75 1015.6
20260905050059 55 310 6.0 10.0 0.00 0.06 0.01 71 1015.6
20260905045544 55 319 7.0 10.0 0.00 0.06 0.01 68 1015.5
20260905045040 55 302 7.0 9.0 0.00 0.06 0.01 68 1015.5
20260905044603 54 319 6.0 9.0 0.00 0.06 0.01 68 1015.5
20260905044043 54 303 6.0 9.0 0.00 0.06 0.01 70 1015.6
20260905043543 54 319 5.0 9.0 0.00 0.06 0.01 72 1015.6
20260905043051 54 315 5.0 9.0 0.00 0.06 0.01 75 1015.4
20260905042543 54 316 4.0 9.0 0.00 0.06 0.01 77 1015.6
20260905042044 55 317 5.0 9.0 0.00 0.06 0.01 78 1015.4
20260905041558 55 319 5.0 9.0 0.00 0.06 0.01 76 1015.5
20260905041044 55 300 6.0 10.0 0.00 0.06 0.01 72 1015.4
20260905040546 55 313 8.0 10.0 0.00 0.06 0.01 71 1015.4
20260905040056 54 314 7.0 9.0 0.00 0.06 0.01 73 1015.4
20260905035543 54 314 6.0 9.0 0.00 0.06 0.01 76 1015.4
20260905035044 54 319 5.0 8.0 0.00 0.06 0.01 77 1015.4
20260905034607 54 317 5.0 8.0 0.00 0.06 0.01 79 1015.4
20260905034044 55 311 4.0 8.0 0.00 0.06 0.01 79 1015.3
20260905033543 55 313 4.0 8.0 0.00 0.06 0.01 79 1015.2
20260905033103 55 324 4.0 8.0 0.00 0.06 0.01 78 1015.2
20260905032544 55 313 4.0 7.0 0.00 0.06 0.01 77 1015.1
20260905032043 56 310 3.0 5.0 0.00 0.06 0.01 76 1015.1
20260905031554 56 320 3.0 5.0 0.00 0.06 0.01 75 1015.1
20260905031044 56 307 2.0 5.0 0.00 0.06 0.01 74 1015.1
20260905030543 56 311 2.0 7.0 0.00 0.06 0.01 72 1015.0
20260905025543 57 311 3.0 8.0 0.00 0.06 0.01 70 1015.0
20260905025043 57 303 4.0 7.0 0.00 0.06 0.01 70 1015.1
20260905024555 57 309 4.0 8.0 0.00 0.06 0.01 71 1015.0
20260905024118 57 309 3.0 8.0 0.00 0.06 0.01 72 1015.0
20260905023543 58 313 3.0 8.0 0.00 0.06 0.01 71 1015.0
20260905023101 58 309 5.0 8.0 0.00 0.06 0.01 69 1015.0
20260905022543 58 315 3.0 8.0 0.00 0.06 0.01 68 1015.0
20260905022043 59 307 2.0 7.0 0.00 0.06 0.01 67 1015.0
20260905021557 59 299 2.0 9.0 0.00 0.06 0.01 65 1014.9
20260905021044 59 293 3.0 9.0 0.00 0.06 0.01 64 1014.9
20260905020543 60 324 4.0 8.0 0.00 0.06 0.01 63 1014.8
20260905020105 60 331 5.0 8.0 0.00 0.06 0.01 62 1014.8
20260905015543 60 309 3.0 7.0 0.00 0.06 0.01 61 1014.9
20260905015046 61 302 4.0 7.0 0.00 0.06 0.01 60 1014.7
20260905014604 61 296 3.0 8.0 0.00 0.06 0.01 59 1014.8
20260905014047 61 302 4.0 10.0 0.00 0.06 0.01 58 1014.8
20260905013544 61 306 5.0 10.0 0.00 0.06 0.01 58 1014.7
20260905013059 62 300 6.0 10.0 0.00 0.06 0.01 57 1014.8
20260905012544 62 296 6.0 10.0 0.00 0.06 0.01 56 1014.8
20260905012044 62 317 5.0 9.0 0.00 0.06 0.01 55 1014.9
20260905011559 63 297 4.0 8.0 0.00 0.06 0.01 53 1014.8
20260905011043 63 300 5.0 8.0 0.00 0.06 0.01 53 1014.9
20260905010544 63 300 5.0 8.0 0.00 0.06 0.01 52 1014.9
20260905010100 63 301 4.0 8.0 0.00 0.06 0.01 53 1014.9
20260905005544 63 319 4.0 9.0 0.00 0.06 0.01 52 1014.8
20260905005044 63 308 5.0 9.0 0.00 0.06 0.01 51 1014.9
20260905004610 64 302 4.0 8.0 0.00 0.06 0.01 52 1014.8
20260905004040 64 304 4.0 8.0 0.00 0.06 0.01 53 1014.8
20260905003544 64 306 4.0 8.0 0.00 0.06 0.01 53 1014.9
20260905003051 64 304 4.0 8.0 0.00 0.06 0.01 52 1015.0
20260905002543 65 304 4.0 8.0 0.00 0.06 0.01 53 1014.9
20260905002046 65 304 4.0 8.0 0.00 0.06 0.01 53 1014.9
20260905001608 65 295 3.0 8.0 0.00 0.06 0.01 54 1014.9
20260905001046 65 307 3.0 8.0 0.00 0.06 0.01 54 1014.8
20260905000545 65 298 2.0 8.0 0.00 0.06 0.01 53 1014.9
20260905000109 65 307 3.0 9.0 0.00 0.06 0.01 53 1014.9
20260904235544 65 304 4.0 9.0 0.00 0.06 0.01 53 1014.9
20260904235043 65 301 3.0 9.0 0.00 0.06 0.01 52 1014.8
20260904234607 65 311 5.0 9.0 0.00 0.06 0.01 53 1014.9
20260904234048 65 298 5.0 10.0 0.00 0.06 0.01 53 1014.9
20260904233546 65 315 7.0 10.0 0.00 0.06 0.01 53 1014.9
20260904233106 66 308 5.0 9.0 0.00 0.06 0.01 53 1014.9
20260904232544 66 297 4.0 9.0 0.00 0.06 0.01 52 1014.9
20260904232046 66 315 4.0 9.0 0.00 0.06 0.01 51 1015.0
20260904231607 67 310 3.0 9.0 0.00 0.06 0.01 50 1014.9
20260904231043 67 312 3.0 8.0 0.00 0.06 0.01 51 1014.9
20260904230545 67 311 3.0 8.0 0.00 0.06 0.01 51 1015.0
20260904230058 67 309 2.0 8.0 0.00 0.06 0.01 51 1015.0
20260904225544 67 304 4.0 8.0 0.00 0.06 0.01 50 1015.0
20260904225047 67 324 1.0 7.0 0.00 0.06 0.01 49 1015.0
20260904224557 67 313 2.0 7.0 0.00 0.06 0.01 48 1015.1
20260904224044 67 308 3.0 6.0 0.00 0.06 0.01 48 1015.1
20260904223544 67 320 2.0 9.0 0.00 0.06 0.01 49 1015.1
20260904223052 67 321 4.0 9.0 0.00 0.06 0.01 47 1015.2
20260904222543 67 312 3.0 9.0 0.00 0.06 0.01 45 1015.2
20260904222046 68 301 4.0 8.0 0.00 0.06 0.01 44 1015.2
20260904221604 68 309 4.0 8.0 0.00 0.06 0.01 42 1015.2
20260904221044 68 315 2.0 8.0 0.00 0.06 0.01 43 1015.3
20260904220544 68 224 1.0 8.0 0.00 0.06 0.01 41 1015.3
20260904215543 69 316 1.0 7.0 0.00 0.06 0.01 41 1015.3
20260904215043 69 313 2.0 7.0 0.00 0.06 0.01 39 1015.3
20260904214549 69 308 1.0 4.0 0.00 0.06 0.01 38 1015.3
20260904214047 69 224 0.0 9.0 0.00 0.06 0.01 42 1015.4
20260904213545 68 272 2.0 9.0 0.00 0.06 0.01 44 1015.3
20260904213051 68 303 2.0 5.0 0.00 0.06 0.01 40 1015.4
20260904212547 68 315 2.0 5.0 0.00 0.06 0.01 45 1015.3
20260904212043 68 47 0.0 3.0 0.00 0.06 0.01 47 1015.4
20260904211608 67 0 1.0 8.0 0.00 0.06 0.01 47 1015.3
20260904211046 67 308 1.0 8.0 0.00 0.06 0.01 46 1015.4
20260904210544 67 308 4.0 8.0 0.00 0.06 0.01 44 1015.3
20260904210056 67 322 1.0 6.0 0.00 0.06 0.01 46 1015.3
20260904205546 67 323 2.0 7.0 0.00 0.06 0.01 48 1015.3
20260904205044 67 327 2.0 7.0 0.00 0.06 0.01 49 1015.3
20260904204558 67 0 0.0 4.0 0.00 0.06 0.01 49 1015.3
20260904204045 66 342 2.0 8.0 0.00 0.06 0.01 47 1015.3
20260904203548 66 325 3.0 8.0 0.00 0.06 0.01 48 1015.3
20260904203114 65 306 2.0 8.0 0.00 0.06 0.01 54 1015.3
20260904202541 65 315 2.0 7.0 0.00 0.06 0.01 52 1015.2
20260904202044 66 294 1.0 5.0 0.00 0.06 0.01 54 1015.2
20260904201600 66 298 2.0 4.0 0.00 0.06 0.01 56 1015.1
20260904201044 65 329 2.0 4.0 0.00 0.06 0.01 59 1015.1
20260904200543 65 319 1.0 5.0 0.00 0.06 0.01 57 1015.1
20260904200120 65 310 2.0 5.0 0.00 0.06 0.01 58 1015.2
20260904195545 64 310 2.0 9.0 0.00 0.06 0.01 58 1015.1
20260904195045 64 285 2.0 9.0 0.00 0.06 0.01 59 1015.2
20260904194606 65 311 4.0 9.0 0.00 0.06 0.01 58 1015.2
20260904194044 64 325 1.0 7.0 0.00 0.06 0.01 60 1015.2
20260904193546 64 310 4.0 7.0 0.00 0.06 0.01 58 1015.3
20260904193101 64 209 2.0 9.0 0.00 0.06 0.01 61 1015.3
20260904192543 65 312 3.0 9.0 0.00 0.06 0.01 59 1015.3
20260904192043 64 289 1.0 4.0 0.00 0.06 0.01 61 1015.4
20260904191600 64 239 1.0 4.0 0.00 0.06 0.01 62 1015.5
20260904191043 63 0 1.0 4.0 0.00 0.06 0.01 62 1015.6
20260904190546 63 331 1.0 3.0 0.00 0.06 0.01 63 1015.6
20260904190058 63 0 1.0 4.0 0.00 0.06 0.01 62 1015.5
20260904185546 62 331 1.0 4.0 0.00 0.06 0.01 62 1015.7
20260904185044 62 334 1.0 5.0 0.00 0.06 0.01 63 1015.7
20260904184554 61 0 2.0 5.0 0.00 0.06 0.01 63 1015.8
20260904184044 61 315 2.0 5.0 0.00 0.06 0.01 61 1015.8
20260904183544 61 314 1.0 5.0 0.00 0.06 0.01 63 1015.7
20260904183101 61 315 2.0 5.0 0.00 0.06 0.01 65 1015.7
20260904182544 61 332 2.0 5.0 0.00 0.06 0.01 67 1015.7
20260904182043 61 329 2.0 4.0 0.00 0.06 0.01 66 1015.7
20260904181557 60 323 2.0 4.0 0.00 0.06 0.01 69 1015.7
20260904181043 60 321 1.0 4.0 0.00 0.06 0.01 68 1015.7
20260904180546 60 294 1.0 3.0 0.00 0.06 0.01 69 1015.7
20260904180107 60 254 1.0 5.0 0.00 0.06 0.01 71 1015.7
20260904175543 60 238 2.0 5.0 0.00 0.06 0.01 70 1015.7
20260904175044 60 0 0.0 0.0 0.00 0.06 0.01 71 1015.6
20260904174607 59 0 0.0 1.0 0.00 0.06 0.01 70 1015.8
20260904174043 59 0 0.0 1.0 0.00 0.06 0.01 70 1015.7
20260904173545 59 0 0.0 1.0 0.00 0.06 0.01 70 1015.7
20260904173102 58 0 0.0 1.0 0.00 0.06 0.01 71 1015.6
20260904172545 58 0 0.0 0.0 0.00 0.06 0.01 72 1015.5
20260904172043 58 0 0.0 0.0 0.00 0.06 0.01 74 1015.4
20260904171603 58 0 0.0 2.0 0.00 0.06 0.01 75 1015.4
20260904171043 57 0 0.0 3.0 0.00 0.06 0.01 73 1015.4
20260904170543 57 311 1.0 3.0 0.00 0.06 0.01 73 1015.4
20260904170059 57 325 1.0 3.0 0.00 0.06 0.01 77 1015.4
20260904165543 57 325 0.0 3.0 0.00 0.06 0.01 78 1015.4
20260904165044 57 325 0.0 3.0 0.00 0.06 0.01 79 1015.2
20260904164556 57 325 0.0 3.0 0.00 0.06 0.01 78 1015.2
20260904164044 57 325 1.0 4.0 0.00 0.06 0.01 78 1015.1
20260904163544 57 325 1.0 4.0 0.00 0.06 0.01 79 1015.0
20260904163101 57 325 2.0 4.0 0.00 0.06 0.01 79 1015.0
20260904162544 57 325 1.0 4.0 0.00 0.06 0.01 78 1014.9
20260904162044 57 325 1.0 4.0 0.00 0.06 0.01 78 1014.9
20260904161617 57 325 2.0 4.0 0.00 0.06 0.01 76 1014.8
20260904161043 57 325 2.0 4.0 0.00 0.06 0.01 76 1014.7
20260904160544 57 325 2.0 4.0 0.00 0.06 0.01 71 1014.6
20260904160107 57 325 2.0 4.0 0.00 0.06 0.01 71 1014.5
20260904155544 57 325 1.0 4.0 0.00 0.06 0.01 69 1014.5
20260904155043 57 325 2.0 5.0 0.00 0.06 0.01 68 1014.4
20260904154605 56 325 2.0 5.0 0.00 0.06 0.01 68 1014.4
20260904154043 56 325 2.0 4.0 0.00 0.06 0.01 68 1014.4
20260904153543 56 328 2.0 5.0 0.00 0.06 0.01 69 1014.5
20260904153133 56 328 2.0 5.0 0.00 0.06 0.01 67 1014.4
20260904152543 56 321 2.0 4.0 0.00 0.06 0.01 68 1014.3
20260904152045 56 321 2.0 4.0 0.00 0.06 0.01 69 1014.2
20260904151557 56 321 2.0 5.0 0.00 0.06 0.01 68 1014.3
20260904151047 56 321 2.0 5.0 0.00 0.06 0.01 68 1014.3
20260904150543 56 321 2.0 5.0 0.00 0.06 0.01 69 1014.2
20260904150053 56 321 2.0 5.0 0.00 0.06 0.01 70 1014.1
20260904145547 56 321 2.0 4.0 0.00 0.06 0.01 70 1014.0
20260904145044 56 321 2.0 4.0 0.00 0.06 0.01 70 1014.0
20260904144603 56 321 2.0 4.0 0.00 0.06 0.01 70 1014.0
20260904144044 55 321 2.0 4.0 0.00 0.06 0.01 70 1014.0
20260904143544 55 321 2.0 4.0 0.00 0.06 0.01 73 1014.0
20260904143100 55 321 3.0 5.0 0.00 0.06 0.01 74 1013.9
20260904142546 55 313 3.0 5.0 0.00 0.06 0.01 74 1013.9
20260904142045 55 310 3.0 4.0 0.00 0.06 0.01 73 1013.8
20260904141557 55 311 2.0 4.0 0.00 0.06 0.01 73 1013.7
20260904141043 55 311 3.0 4.0 0.00 0.06 0.01 73 1013.7
20260904140544 55 316 3.0 4.0 0.00 0.06 0.01 73 1013.5
20260904140055 55 317 3.0 4.0 0.00 0.06 0.01 74 1013.6
20260904135544 55 317 2.0 3.0 0.00 0.06 0.01 74 1013.5
20260904135042 55 317 2.0 3.0 0.00 0.06 0.01 75 1013.5
20260904134553 55 317 2.0 4.0 0.00 0.06 0.01 74 1013.6
20260904134043 55 317 2.0 4.0 0.00 0.06 0.01 75 1013.5
20260904133543 54 317 2.0 4.0 0.00 0.06 0.01 75 1013.6
20260904133100 54 317 2.0 4.0 0.00 0.06 0.01 77 1013.5
20260904132544 54 317 3.0 5.0 0.00 0.06 0.01 79 1013.5
20260904132043 54 317 3.0 5.0 0.00 0.06 0.01 79 1013.5
20260904131619 54 317 3.0 6.0 0.00 0.06 0.01 80 1013.4
20260904131043 54 311 4.0 6.0 0.00 0.06 0.01 81 1013.4
20260904130543 53 306 4.0 5.0 0.00 0.06 0.01 82 1013.4
20260904130052 53 312 3.0 6.0 0.00 0.06 0.01 84 1013.3
20260904125543 52 313 3.0 7.0 0.01 0.06 0.01 87 1013.3
20260904125044 52 313 4.0 7.0 0.01 0.06 0.01 89 1013.3
20260904124555 52 321 4.0 7.0 0.01 0.06 0.01 91 1013.3
20260904124046 52 305 4.0 8.0 0.01 0.06 0.01 92 1013.3
20260904123543 52 319 4.0 9.0 0.01 0.06 0.01 93 1013.3
20260904123100 52 317 5.0 10.0 0.01 0.06 0.01 93 1013.4
20260904122543 52 312 6.0 10.0 0.01 0.06 0.01 94 1013.3
20260904122046 52 316 6.0 10.0 0.01 0.06 0.01 94 1013.4
20260904121600 52 317 6.0 9.0 0.01 0.06 0.01 94 1013.4
20260904121043 53 311 5.0 9.0 0.01 0.06 0.01 95 1013.3
20260904120543 53 317 4.0 8.0 0.01 0.06 0.01 95 1013.4
20260904115543 53 315 5.0 7.0 0.00 0.05 0.00 95 1013.4
20260904115043 53 318 4.0 7.0 0.00 0.05 0.00 95 1013.4
20260904114557 53 300 4.0 7.0 0.00 0.05 0.00 95 1013.4
20260904114043 53 313 4.0 7.0 0.00 0.05 0.00 95 1013.3
20260904113544 53 312 4.0 8.0 0.00 0.05 0.00 95 1013.1
20260904113057 53 313 4.0 8.0 0.00 0.05 0.00 95 1013.2
20260904112543 53 313 4.0 7.0 0.00 0.05 0.00 95 1013.1
20260904112045 53 311 4.0 7.0 0.00 0.05 0.00 95 1013.2
20260904111606 53 317 4.0 7.0 0.00 0.05 0.00 95 1013.2
20260904111046 53 315 4.0 7.0 0.00 0.05 0.00 95 1013.2
20260904110545 53 300 3.0 7.0 0.00 0.05 0.00 95 1013.2
20260904110104 53 312 3.0 6.0 0.00 0.05 0.00 95 1013.2
20260904105545 53 313 3.0 7.0 0.00 0.05 0.00 95 1013.3
20260904105046 53 313 4.0 7.0 0.00 0.05 0.00 95 1013.3
20260904104604 53 313 4.0 7.0 0.00 0.05 0.00 95 1013.2
20260904104051 53 315 3.0 8.0 0.00 0.05 0.00 95 1013.1
20260904103542 53 318 3.0 8.0 0.00 0.05 0.00 95 1013.1
20260904103105 54 306 4.0 7.0 0.00 0.05 0.00 95 1013.1
20260904102544 54 317 3.0 8.0 0.00 0.05 0.00 95 1013.0
20260904102045 54 319 4.0 9.0 0.00 0.05 0.00 95 1013.1
20260904101600 54 312 4.0 10.0 0.00 0.05 0.00 95 1013.0
20260904101043 54 331 3.0 10.0 0.00 0.05 0.00 95 1012.9
20260904100543 54 312 6.0 10.0 0.00 0.05 0.00 95 1013.0
20260904100218 54 316 5.0 9.0 0.00 0.05 0.00 95 1012.9
20260904095544 54 317 4.0 8.0 0.00 0.05 0.00 95 1012.9
20260904095044 54 313 4.0 7.0 0.00 0.05 0.00 95 1012.9
20260904094557 54 326 3.0 6.0 0.00 0.05 0.00 95 1012.9
20260904094043 54 317 2.0 8.0 0.00 0.05 0.00 95 1012.9